Regional Weather Roundup
Issued by NWS

Home | Current Version | Previous Version | Graphics & Text | Print | Product List | Glossary On
Versions: 1 2 3 4 5 6 7 8 9 10 11 12 13 14 15 16 17 18 19 20 21 22 23 24 25 26 27 28 29 30 31 32 33 34 35 36 37 38 39 40 41 42 43 44 45 46 47 48 49 50
632
ASUS44 KLIX 222301
RWRLA
LOUISIANA WEATHER ROUNDUP
NATIONAL WEATHER SERVICE NEW ORLEANS LA
500 PM CST SAT NOV 22 2014

NOTE: "FAIR" INDICATES FEW OR NO CLOUDS BELOW 12,000 FEET WITH NO
      SIGNIFICANT WEATHER AND/OR OBSTRUCTIONS TO VISIBILITY.
      SKY/WX - SKY CONDITION AND SIGNIFICANT WEATHER.
      TMP - AIR TEMPERATURE.    DP   - DEWPOINT TEMPERATURE.
      RH  - RELATIVE HUMIDITY.  PRES - PRESSURE.
      HX  - HEAT INDEX.         WCI  - WIND CHILL INDEX.

*  THESE STATIONS ARE NOT NWS OR FAA STATIONS AND ARE NOT UNDER
   NWS QUALITY CONTROL.

LAZ040-048-061>063-065-066-069-230000-
SOUTHEAST LOUISIANA

CITY           SKY/WX    TMP DP  RH WIND       PRES   REMARKS
N.O. AUDUBON     N/A     64  61  88 MISG        N/A
N.O. INTL ARPT MOCLDY    64  59  83 E13       30.02F
N.O. LAKEFRONT CLOUDY    62  57  83 E12       30.05F
N.O. DOWNTOWN* MOCLDY    61  55  82 NE5       30.05F
SLIDELL        CLOUDY    64  58  80 E7        30.04F
BATON ROUGE    CLOUDY    64  58  80 E14G21    30.01F
BOOTHVILLE     CLOUDY    66  65  96 E9        30.03F
BELLE CHASSE   CLOUDY    63  57  81 NE9       30.04F
BOGALUSA*      NOT AVBL
NEW ROADS*     NOT AVBL
GONZALES*      NOT AVBL
HAMMOND*       NOT AVBL
HOUMA*         MOCLDY    66  63  88 E10       30.01F
PORT FOURCHON* CLEAR     68  64  88 E9        30.04F

$$

LAZ041-044-053-054-230000-
SOUTHWEST LOUISIANA

CITY           SKY/WX    TMP DP  RH WIND       PRES   REMARKS
LAKE CHARLES   CLOUDY    68  61  78 SE16G26   29.91F
LAFAYETTE      CLOUDY    69  60  73 E9        29.96S
PATTERSON      CLOUDY    68  63  83 E9        30.01S
SALT POINT       N/A     70  63  78 VRB7      29.96F
NEW IBERIA     CLOUDY    69  61  75 E15       29.96F HAZE
CHENAULT AIRPK NOT AVBL

$$

LAZ027-028-230000-
CENTRAL LOUISIANA

CITY           SKY/WX    TMP DP  RH WIND       PRES   REMARKS
FORT POLK      CLOUDY    66  60  80 E9        29.92F
ALEXANDRIA INT CLOUDY    68  58  70 E9        29.96F
ALEXANDRIA     CLOUDY    67  58  72 SE9       29.98F

$$

LAZ001-002-230000-
NORTHWEST LOUISIANA

CITY           SKY/WX    TMP DP  RH WIND       PRES   REMARKS
SHREVEPORT     CLOUDY    66  58  75 SE7       29.92F
BARKSDALE AFB  CLOUDY    66  57  72 SE8       29.94F
DTN SHREVEPORT CLOUDY    66  56  70 SE6       29.94S

$$

LAZ014-016-230000-
NORTHEAST LOUISIANA

CITY           SKY/WX    TMP DP  RH WIND       PRES   REMARKS
MONROE         MOCLDY    66  56  70 CALM      30.01S
TALLULAH       CLOUDY    67  54  63 SE9       30.02S

$$




USA.gov is the U.S. government's official web portal to all federal, state and local government web resources and services.